| time (UTC) | temp F | wind direction | speed MPH | gust MPH | rain 1hr in | rain 24hr in | rain mn in | humidity % | barometer mb |
| 20260831130031 | 47 | 103 | 2.0 | 3.0 | 0.00 | 0.22 | 0.00 | 55 | 1019.9 |
| 20260831124511 | 47 | 98 | 3.0 | 6.0 | 0.00 | 0.22 | 0.00 | 55 | 1019.8 |
| 20260831123016 | 47 | 99 | 3.0 | 3.0 | 0.00 | 0.22 | 0.00 | 54 | 1019.7 |
| 20260831121524 | 48 | 86 | 2.0 | 4.0 | 0.00 | 0.22 | 0.00 | 52 | 1019.8 |
| 20260831120028 | 48 | 103 | 3.0 | 3.0 | 0.00 | 0.23 | 0.00 | 53 | 1019.8 |
| 20260831114531 | 47 | 106 | 3.0 | 4.0 | 0.00 | 0.24 | 0.00 | 53 | 1019.7 |
| 20260831113016 | 47 | 109 | 2.0 | 4.0 | 0.00 | 0.31 | 0.00 | 55 | 1019.6 |
| 20260831111521 | 47 | 94 | 3.0 | 4.0 | 0.00 | 0.37 | 0.00 | 55 | 1019.6 |
| 20260831110026 | 47 | 103 | 4.0 | 6.0 | 0.00 | 0.37 | 0.00 | 56 | 1019.7 |
| 20260831104537 | 47 | 103 | 3.0 | 6.0 | 0.00 | 0.37 | 0.00 | 57 | 1019.6 |
| 20260831103032 | 47 | 113 | 3.0 | 4.0 | 0.00 | 0.37 | 0.00 | 58 | 1019.6 |
| 20260831101516 | 47 | 109 | 2.0 | 4.0 | 0.00 | 0.37 | 0.00 | 58 | 1019.5 |
| 20260831100022 | 46 | 116 | 3.0 | 4.0 | 0.00 | 0.37 | 0.00 | 59 | 1019.6 |
| 20260831094529 | 46 | 107 | 2.0 | 3.0 | 0.00 | 0.37 | 0.00 | 60 | 1019.5 |
| 20260831093033 | 45 | 115 | 3.0 | 4.0 | 0.00 | 0.37 | 0.00 | 62 | 1019.5 |
| 20260831091529 | 47 | 117 | 3.0 | 4.0 | 0.00 | 0.37 | 0.00 | 60 | 1019.5 |
| 20260831090018 | 47 | 116 | 3.0 | 4.0 | 0.00 | 0.37 | 0.00 | 58 | 1019.5 |
| 20260831084526 | 47 | 116 | 3.0 | 4.0 | 0.00 | 0.37 | 0.00 | 58 | 1019.4 |
| 20260831083038 | 47 | 96 | 3.0 | 4.0 | 0.00 | 0.37 | 0.00 | 58 | 1019.4 |
| 20260831081536 | 47 | 119 | 3.0 | 3.0 | 0.00 | 0.37 | 0.00 | 60 | 1019.3 |
| 20260831080016 | 46 | 119 | 2.0 | 4.0 | 0.00 | 0.37 | 0.00 | 63 | 1019.3 |
| 20260831074521 | 46 | 150 | 4.0 | 6.0 | 0.00 | 0.37 | 0.00 | 62 | 1019.1 |
| 20260831073012 | 49 | 38 | 0.0 | 0.0 | 0.00 | 0.37 | 0.00 | 53 | 1019.0 |
| 20260831071510 | 51 | 335 | 0.0 | 0.0 | 0.00 | 0.37 | 0.00 | 50 | 1018.8 |
| 20260831070023 | 52 | 338 | 0.0 | 0.0 | 0.00 | 0.37 | 0.00 | 48 | 1018.7 |
| 20260831064518 | 52 | 64 | 0.0 | 0.0 | 0.00 | 0.37 | 0.00 | 48 | 1018.6 |
| 20260831063026 | 52 | 136 | 0.0 | 2.0 | 0.00 | 0.37 | 0.00 | 48 | 1018.4 |
| 20260831061509 | 53 | 109 | 1.0 | 2.0 | 0.00 | 0.37 | 0.00 | 46 | 1018.4 |
| 20260831060011 | 53 | 77 | 2.0 | 2.0 | 0.00 | 0.37 | 0.00 | 46 | 1018.2 |
| 20260831054516 | 53 | 156 | 1.0 | 2.0 | 0.00 | 0.37 | 0.37 | 48 | 1018.3 |
| 20260831053023 | 54 | 114 | 0.0 | 2.0 | 0.00 | 0.37 | 0.37 | 46 | 1018.1 |
| 20260831051528 | 53 | 100 | 2.0 | 4.0 | 0.00 | 0.37 | 0.37 | 48 | 1018.0 |
| 20260831050010 | 54 | 117 | 3.0 | 6.0 | 0.00 | 0.37 | 0.37 | 46 | 1017.9 |
| 20260831044513 | 54 | 110 | 3.0 | 6.0 | 0.00 | 0.37 | 0.37 | 46 | 1017.8 |
| 20260831043020 | 54 | 115 | 2.0 | 3.0 | 0.00 | 0.37 | 0.37 | 47 | 1017.6 |
| 20260831041602 | 55 | 109 | 3.0 | 4.0 | 0.00 | 0.37 | 0.37 | 41 | 1017.4 |
| 20260831040007 | 56 | 107 | 2.0 | 4.0 | 0.00 | 0.37 | 0.37 | 41 | 1017.2 |
| 20260831034508 | 57 | 115 | 1.0 | 2.0 | 0.00 | 0.38 | 0.37 | 40 | 1017.2 |
| 20260831033022 | 55 | 119 | 2.0 | 4.0 | 0.00 | 0.39 | 0.37 | 44 | 1017.0 |
| 20260831031523 | 56 | 129 | 2.0 | 3.0 | 0.00 | 0.39 | 0.37 | 41 | 1016.8 |
| 20260831030029 | 55 | 103 | 0.0 | 0.0 | 0.00 | 0.39 | 0.37 | 44 | 1016.5 |
| 20260831024509 | 56 | 91 | 0.0 | 0.0 | 0.00 | 0.39 | 0.37 | 42 | 1016.2 |
| 20260831023013 | 57 | 70 | 0.0 | 0.0 | 0.00 | 0.39 | 0.37 | 41 | 1016.0 |
| 20260831021532 | 58 | 88 | 0.0 | 1.0 | 0.00 | 0.39 | 0.37 | 40 | 1015.9 |
| 20260831020026 | 61 | 44 | 0.0 | 1.0 | 0.00 | 0.39 | 0.37 | 41 | 1015.7 |
| 20260831014530 | 63 | 42 | 0.0 | 3.0 | 0.00 | 0.39 | 0.37 | 39 | 1015.7 |
| 20260831013010 | 65 | 36 | 1.0 | 4.0 | 0.00 | 0.39 | 0.37 | 34 | 1015.8 |
| 20260831011528 | 66 | 5 | 3.0 | 5.0 | 0.00 | 0.39 | 0.37 | 31 | 1015.8 |
| 20260831010024 | 67 | 328 | 3.0 | 6.0 | 0.00 | 0.40 | 0.37 | 30 | 1015.8 |
| 20260831004531 | 67 | 348 | 5.0 | 11.0 | 0.00 | 0.45 | 0.37 | 27 | 1015.9 |
| 20260831003035 | 68 | 317 | 5.0 | 11.0 | 0.00 | 0.47 | 0.37 | 29 | 1016.0 |
| 20260831001515 | 68 | 360 | 8.0 | 15.0 | 0.00 | 0.47 | 0.37 | 29 | 1016.0 |
| 20260831000031 | 69 | 341 | 1.0 | 6.0 | 0.00 | 0.47 | 0.37 | 34 | 1015.9 |
| 20260830234528 | 68 | 360 | 2.0 | 4.0 | 0.00 | 0.48 | 0.37 | 36 | 1016.1 |
| 20260830233034 | 68 | 47 | 2.0 | 8.0 | 0.00 | 0.49 | 0.37 | 35 | 1016.0 |
| 20260830231530 | 67 | 321 | 1.0 | 8.0 | 0.00 | 0.49 | 0.37 | 38 | 1016.0 |
| 20260830230020 | 67 | 323 | 4.0 | 10.0 | 0.00 | 0.49 | 0.37 | 39 | 1016.1 |
| 20260830224527 | 66 | 309 | 2.0 | 9.0 | 0.00 | 0.49 | 0.37 | 39 | 1016.0 |
| 20260830223008 | 66 | 286 | 3.0 | 10.0 | 0.00 | 0.54 | 0.37 | 44 | 1016.1 |
| 20260830221510 | 66 | 360 | 3.0 | 9.0 | 0.00 | 0.54 | 0.37 | 45 | 1016.1 |
| 20260830220014 | 65 | 325 | 3.0 | 10.0 | 0.00 | 0.54 | 0.37 | 44 | 1016.3 |
| 20260830214517 | 65 | 13 | 4.0 | 8.0 | 0.00 | 0.54 | 0.37 | 45 | 1016.2 |
| 20260830213008 | 65 | 51 | 1.0 | 9.0 | 0.00 | 0.54 | 0.37 | 41 | 1016.4 |
| 20260830211510 | 64 | 327 | 4.0 | 11.0 | 0.00 | 0.54 | 0.37 | 48 | 1016.6 |
| 20260830210013 | 64 | 15 | 3.0 | 10.0 | 0.00 | 0.54 | 0.37 | 48 | 1016.8 |
| 20260830204512 | 63 | 346 | 3.0 | 10.0 | 0.00 | 0.54 | 0.37 | 49 | 1017.0 |
| 20260830203015 | 63 | 295 | 4.0 | 10.0 | 0.00 | 0.54 | 0.37 | 51 | 1017.2 |
| 20260830201507 | 62 | 25 | 2.0 | 10.0 | 0.00 | 0.54 | 0.37 | 54 | 1017.2 |
| 20260830200010 | 62 | 352 | 4.0 | 9.0 | 0.00 | 0.54 | 0.37 | 53 | 1017.2 |
| 20260830194520 | 61 | 325 | 2.0 | 9.0 | 0.00 | 0.54 | 0.37 | 55 | 1017.3 |
| 20260830193016 | 60 | 325 | 3.0 | 6.0 | 0.00 | 0.54 | 0.37 | 55 | 1017.4 |
| 20260830191520 | 59 | 360 | 4.0 | 9.0 | 0.00 | 0.54 | 0.37 | 56 | 1017.5 |
| 20260830190011 | 58 | 21 | 4.0 | 8.0 | 0.00 | 0.54 | 0.37 | 56 | 1017.5 |
| 20260830184523 | 58 | 13 | 1.0 | 5.0 | 0.00 | 0.54 | 0.37 | 57 | 1017.5 |
| 20260830183024 | 57 | 9 | 2.0 | 5.0 | 0.00 | 0.54 | 0.37 | 59 | 1017.9 |
| 20260830181521 | 57 | 285 | 2.0 | 8.0 | 0.00 | 0.54 | 0.37 | 59 | 1017.8 |
| 20260830180025 | 56 | 315 | 2.0 | 7.0 | 0.00 | 0.54 | 0.37 | 69 | 1018.0 |
| 20260830174514 | 55 | 360 | 1.0 | 7.0 | 0.00 | 0.54 | 0.37 | 73 | 1018.0 |
| 20260830173017 | 53 | 315 | 1.0 | 3.0 | 0.00 | 0.54 | 0.37 | 77 | 1018.0 |
| 20260830171524 | 51 | 74 | 1.0 | 2.0 | 0.00 | 0.54 | 0.37 | 75 | 1018.2 |
| 20260830170026 | 51 | 210 | 0.0 | 4.0 | 0.00 | 0.54 | 0.37 | 79 | 1018.1 |
| 20260830164524 | 50 | 208 | 3.0 | 6.0 | 0.00 | 0.54 | 0.37 | 82 | 1018.1 |
| 20260830163020 | 49 | 149 | 4.0 | 6.0 | 0.00 | 0.54 | 0.37 | 88 | 1018.0 |
| 20260830161530 | 48 | 192 | 5.0 | 7.0 | 0.00 | 0.54 | 0.37 | 88 | 1017.9 |
| 20260830160028 | 48 | 292 | 1.0 | 4.0 | 0.06 | 0.54 | 0.37 | 87 | 1017.5 |
| 20260830154527 | 48 | 352 | 0.0 | 4.0 | 0.21 | 0.54 | 0.37 | 91 | 1017.1 |
| 20260830153026 | 48 | 312 | 1.0 | 7.0 | 0.22 | 0.54 | 0.37 | 91 | 1016.9 |
| 20260830151517 | 49 | 352 | 0.0 | 2.0 | 0.22 | 0.54 | 0.37 | 92 | 1016.8 |
| 20260830150028 | 48 | 292 | 0.0 | 4.0 | 0.16 | 0.48 | 0.31 | 92 | 1017.0 |
| 20260830144534 | 49 | 248 | 10.0 | 14.0 | 0.01 | 0.33 | 0.16 | 90 | 1017.7 |
| 20260830143030 | 49 | 291 | 0.0 | 4.0 | 0.00 | 0.32 | 0.15 | 90 | 1016.1 |
| 20260830141530 | 50 | 298 | 6.0 | 9.0 | 0.00 | 0.32 | 0.15 | 89 | 1016.1 |
| 20260830140024 | 49 | 340 | 3.0 | 8.0 | 0.00 | 0.32 | 0.15 | 89 | 1015.5 |
| 20260830134535 | 49 | 18 | 1.0 | 4.0 | 0.00 | 0.32 | 0.15 | 90 | 1015.4 |
| 20260830133008 | 49 | 36 | 2.0 | 5.0 | 0.00 | 0.32 | 0.15 | 91 | 1015.5 |